Memphis, TN

11:20 AM CST on November 18, 2019 (GMT -0600)
Memphis International

Weather History for KMEM - October, 2019

Change the Weather History Date:

Monday, October 21, 2019

  Actual Average Record
Temperature  
Mean Temperature 64 °F 62 °F  
Max Temperature 73 °F 73 °F 89 °F (1947)
Min Temperature 55 °F 52 °F 32 °F (1952)
Degree Days  
Heating Degree Days 1 5  
Month to date heating degree days 59 59  
Since 1 July heating degree days 59 70  
Cooling Degree Days 0 2  
Month to date cooling degree days 121 75  
Year to date cooling degree days 2479 2226  
Growing Degree Days 12 (Base 50)    
Moisture  
Dew Point 62 °F    
Average Humidity 83    
Maximum Humidity 100    
Minimum Humidity 66    
Precipitation  
Precipitation 0.64 in 0.13 in 1.97 in (1996)
Month to date precipitation 6.43 2.61  
Year to date precipitation 58.78 41.08  
Snow  
Snow 0.00 in 0.00 in 0.00 in (2002)
Month to date snowfall 0.0 0.0  
Since 1 July snowfall 0.0 0.0  
Since 1 September snowfall 0.0 0.0  
Snow Depth 0.00 in    
Sea Level Pressure  
Sea Level Pressure 29.77 in    
Wind  
Wind Speed 11 mph (SSW)    
Max Wind Speed 33 mph    
Max Gust Speed 53 mph    
Visibility 9 miles    
Events Rain , Thunderstorm    
T = Trace of Precipitation, MM = Missing Value Source: NWS Daily Summary

Daily Weather History Graph

Daily Weather History Graph

Search for Another Location

Airport or City:

Astronomy

Oct. 21, 2019 Rise Set
Actual Time 7:10 AM CDT 6:17 PM CDT
Civil Twilight 6:45 AM CDT 6:43 PM CDT
Nautical Twilight 6:15 AM CDT 7:12 PM CDT
Astronomical Twilight 5:46 AM CDT 7:42 PM CDT
Moon No Moon Rise 2:21 PM CDT (10/21)
Length of Visible Light 11h 58m
Length of Day
11h 06m
Waning Gibbous, 48% of the Moon is Illuminated
Oct 21
Waning Gibbous
Oct 27
New
Nov 4
First Quarter
Nov 12
Full
Nov 19
Last Quarter

Hourly Weather History & Observations

Time (CDT) Temp. Dew Point Humidity Pressure Visibility Wind Dir Wind Speed Gust Speed Precip Events Conditions
12:54 AM 70.0 °F 64.9 °F 84% 29.73 in 10.0 mi SSE 13.8 mph - N/A   Overcast
1:54 AM 70.0 °F 66.0 °F 87% 29.68 in 10.0 mi South 16.1 mph 25.3 mph N/A   Overcast
2:54 AM 72.0 °F 66.9 °F 84% 29.69 in 10.0 mi South 17.3 mph - N/A   Overcast
3:03 AM 72.0 °F 66.9 °F 84% 29.70 in 10.0 mi South 13.8 mph 23.0 mph N/A   Overcast
3:54 AM 72.0 °F 68.0 °F 87% 29.67 in 10.0 mi South 15.0 mph - N/A   Overcast
4:54 AM 72.0 °F 69.1 °F 91% 29.67 in 10.0 mi South 17.3 mph - 0.01 in   Overcast
5:54 AM 73.0 °F 68.0 °F 84% 29.66 in 10.0 mi South 20.7 mph 33.4 mph 0.00 in   Overcast
6:37 AM 71.1 °F 66.9 °F 87% 29.74 in 10.0 mi West 33.4 mph 52.9 mph N/A Thunderstorm Thunderstorm
6:43 AM 64.9 °F 64.0 °F 97% 29.78 in 1.0 mi West 16.1 mph 52.9 mph 0.17 in Rain , Thunderstorm Heavy Thunderstorms and Rain
6:54 AM 64.9 °F 64.0 °F 97% 29.77 in 3.0 mi WSW 9.2 mph - 0.35 in Rain , Thunderstorm Heavy Thunderstorms and Rain
7:12 AM 64.0 °F 63.0 °F 96% 29.77 in 6.0 mi SSW 10.4 mph 18.4 mph 0.08 in Rain , Thunderstorm Thunderstorms and Rain
7:26 AM 64.0 °F 63.0 °F 96% 29.77 in 10.0 mi SSW 11.5 mph - 0.08 in Rain Light Rain
7:54 AM 64.0 °F 63.0 °F 96% 29.73 in 9.0 mi South 5.8 mph - 0.11 in Rain Rain
8:54 AM 64.0 °F 62.1 °F 93% 29.79 in 10.0 mi North - - 0.04 in Rain Light Rain
9:54 AM 63.0 °F 62.1 °F 97% 29.74 in 10.0 mi SSE 15.0 mph - 0.02 in Rain Light Rain
10:54 AM 64.0 °F 62.1 °F 93% 29.79 in 10.0 mi SSE 9.2 mph - 0.02 in Rain Light Rain
11:54 AM 63.0 °F 62.1 °F 97% 29.72 in 7.0 mi South 11.5 mph - 0.08 in Rain Light Rain
12:33 PM 64.0 °F 62.1 °F 93% 29.79 in 10.0 mi North - - 0.01 in   Mostly Cloudy
12:54 PM 64.0 °F 62.1 °F 93% 29.80 in 10.0 mi ENE 5.8 mph - 0.01 in   Overcast
1:17 PM 64.0 °F 62.1 °F 93% 29.80 in 10.0 mi North 3.5 mph - N/A   Overcast
1:54 PM 64.0 °F 62.1 °F 93% 29.78 in 10.0 mi NNE 11.5 mph - 0.00 in   Overcast
2:09 PM 64.0 °F 62.1 °F 93% 29.78 in 10.0 mi North 11.5 mph - N/A   Overcast
2:34 PM 64.0 °F 61.0 °F 90% 29.78 in 10.0 mi SSW 16.1 mph 23.0 mph N/A   Overcast
2:54 PM 64.0 °F 61.0 °F 90% 29.78 in 10.0 mi SSW 11.5 mph - N/A   Overcast
3:54 PM 64.9 °F 62.1 °F 90% 29.78 in 10.0 mi SW 11.5 mph 20.7 mph N/A   Overcast
4:54 PM 64.9 °F 61.0 °F 87% 29.78 in 10.0 mi SSW 12.7 mph - N/A   Mostly Cloudy
5:39 PM 64.9 °F 61.0 °F 87% 29.80 in 10.0 mi SSW 9.2 mph - N/A   Mostly Cloudy
5:54 PM 64.9 °F 61.0 °F 87% 29.79 in 10.0 mi SSW 10.4 mph - N/A   Mostly Cloudy
6:54 PM 63.0 °F 61.0 °F 93% 29.81 in 10.0 mi SSW 8.1 mph - N/A   Scattered Clouds
7:54 PM 62.1 °F 60.1 °F 93% 29.83 in 10.0 mi SSW 8.1 mph - N/A   Partly Cloudy
8:54 PM 62.1 °F 61.0 °F 96% 29.87 in 7.0 mi SW 10.4 mph - N/A   Partly Cloudy
9:54 PM 60.1 °F 57.9 °F 93% 29.90 in 10.0 mi WSW 5.8 mph - N/A   Partly Cloudy
10:54 PM 59.0 °F 48.0 °F 67% 29.92 in 10.0 mi West 4.6 mph - N/A   Clear
11:54 PM 55.9 °F 45.0 °F 67% 29.92 in 10.0 mi West 4.6 mph - N/A   Clear